Wind_Speed
36 36 37 37 37 38 38 38 37 36 36 36 37 38 39 40 40 40 39 38 36 35 33 30 28 26 25 23 22 21 20 20 20 21 21 22 24 24
39 38 39 39 39 39 40 40 40 38 37 38 38 39 41 42 42 42 41 40 38 36 34 31 29 27 25 23 22 20 20 19 19 20 20 21 22 23
41 41 41 41 41 41 41 41 41 41 40 38 39 40 42 44 44 43 42 41 40 38 36 33 31 28 25 23 21 20 19 18 18 19 19 20 20 21
43 43 43 43 44 43 43 43 44 44 41 40 40 41 43 45 45 45 44 44 42 40 38 35 32 29 26 24 22 20 19 18 18 18 18 19 20 21
45 46 46 46 47 47 46 46 46 46 45 43 42 43 44 46 47 47 47 46 45 42 40 37 34 31 28 24 22 21 19 18 18 17 17 17 18 19
46 47 48 49 49 50 50 50 50 49 48 47 44 44 45 47 48 48 49 48 47 45 42 39 36 33 29 26 23 21 20 18 17 16 16 16 16 17
47 48 49 50 51 52 53 54 54 53 51 50 48 47 46 48 48 49 50 50 49 47 44 41 38 35 32 28 25 23 21 19 17 16 15 15 15 16
46 47 48 50 51 53 55 57 58 57 55 53 52 50 48 48 50 50 52 51 50 49 46 44 41 37 34 30 27 24 21 19 18 16 15 15 15 15
43 44 46 49 51 53 56 58 60 60 59 57 55 52 50 50 51 52 52 52 51 50 49 46 43 40 36 32 29 25 23 21 19 17 16 15 15 15
38 40 43 46 49 52 55 59 60 61 61 60 58 56 53 51 50 51 53 53 53 53 52 49 46 42 39 35 31 28 24 22 20 18 17 16 15 14
35 37 40 43 46 50 54 57 60 62 63 63 61 60 57 54 52 53 54 55 55 53 51 49 47 44 41 37 34 30 27 24 22 20 18 17 16 15
31 34 37 40 44 47 52 56 58 60 63 63 63 61 59 56 54 53 52 53 54 53 51 50 48 46 43 40 36 33 29 26 24 22 20 19 18 17
28 30 32 36 40 44 48 53 56 59 62 63 63 63 60 58 56 54 53 52 53 53 52 51 49 48 46 42 39 36 32 29 26 24 22 20 19 18
23 24 27 31 36 40 45 49 54 57 60 63 64 63 61 59 57 55 53 52 52 53 55 55 52 50 48 45 42 38 35 31 29 26 24 22 20 19
15 17 21 26 31 36 41 46 50 54 57 61 63 62 61 59 58 58 55 54 53 53 54 55 54 52 49 47 44 40 37 34 31 29 26 23 21 20
10 13 17 21 26 32 38 43 47 51 54 57 60 61 60 60 58 57 56 54 53 53 54 54 54 52 50 48 45 41 39 36 33 31 28 26 24 23
8 10 13 17 22 28 34 39 44 48 52 54 57 59 59 60 57 56 55 54 52 51 52 53 53 52 51 49 46 43 40 38 36 33 30 28 26 25
6 9 13 17 20 25 30 35 40 45 48 51 54 56 58 58 57 54 52 54 53 51 50 50 50 50 49 48 46 43 41 39 37 34 32 29 28 27
5 8 13 17 20 23 27 32 36 40 44 48 51 54 56 57 56 55 53 53 51 50 49 49 49 48 46 45 43 43 41 40 38 36 34 32 30 28
5 8 11 15 19 22 26 29 33 36 40 45 48 51 53 55 55 54 53 53 52 49 48 48 47 46 45 44 44 44 43 40 38 36 35 33 31 29
4 8 11 14 18 20 23 27 30 33 36 41 45 48 49 52 53 53 53 52 51 49 47 46 45 45 46 46 46 44 43 41 39 36 35 33 31 30
4 7 11 14 16 19 21 24 26 30 34 38 42 45 48 49 51 53 53 52 50 49 47 47 47 46 44 44 44 43 41 40 38 37 35 33 32 32
5 7 10 12 14 17 19 21 24 28 31 35 39 43 46 47 49 50 50 50 50 49 47 47 46 45 44 43 42 42 41 40 38 37 35 34 34 33
Wind_Direction
257 253 250 247 245 242 237 234 232 230 228 223 221 218 217 216 214 214 211 210 209 209 209 208 208 208 210 212 214 218 222 226 231 233 237 241 245 247
258 254 250 246 244 241 237 234 230 228 225 221 219 218 216 214 214 213 211 209 208 207 207 207 207 207 209 211 214 218 222 228 232 235 237 241 245 248
259 255 251 246 243 240 237 233 229 226 224 220 219 218 216 214 213 213 210 209 207 207 206 206 206 208 209 212 215 219 224 229 233 235 237 241 245 247
259 255 251 246 242 239 236 233 229 225 223 221 218 216 213 212 212 212 210 210 208 207 206 206 207 208 210 212 216 220 225 229 233 235 238 243 246 248
260 255 251 247 242 239 235 232 229 226 223 221 219 217 214 212 211 211 211 210 208 208 207 207 207 208 211 213 217 220 225 229 232 235 240 243 245 247
261 256 251 247 243 238 234 231 229 225 223 220 218 216 215 212 211 211 210 209 209 208 208 208 208 209 211 214 216 220 223 228 232 235 238 240 243 246
262 257 251 246 242 237 233 230 228 224 222 220 218 217 214 214 211 211 210 209 209 209 209 209 209 210 212 213 216 219 223 227 230 233 235 237 241 244
262 257 251 245 240 236 231 228 226 225 222 220 217 217 215 213 211 210 209 209 209 209 209 209 210 212 213 214 216 219 222 225 228 230 233 237 240 244
263 256 249 242 237 233 229 227 225 223 222 219 217 216 215 213 211 210 208 208 209 209 209 210 211 213 214 215 217 219 222 226 228 230 232 236 240 243
262 255 248 241 236 232 228 224 222 221 219 218 217 214 213 212 212 210 207 207 209 209 209 210 211 213 214 215 218 220 223 226 228 230 233 235 239 241
264 256 248 239 234 230 226 222 221 219 216 215 215 214 213 214 214 211 208 208 208 209 210 211 212 213 214 216 218 220 223 226 228 231 234 236 238 241
267 257 247 238 232 228 224 220 219 216 215 214 212 212 213 213 214 211 208 208 209 209 210 211 213 214 215 217 218 220 223 226 228 231 235 237 238 242
269 257 245 237 230 224 221 218 216 215 214 212 211 211 211 211 212 213 209 207 209 209 210 212 214 214 215 217 219 221 223 226 229 231 235 238 240 243
269 253 240 232 225 220 217 214 213 213 213 212 210 209 209 209 209 210 209 208 209 208 209 211 212 213 215 216 219 221 223 226 229 232 236 239 242 245
267 248 234 224 217 215 213 211 210 210 211 210 209 209 208 208 209 209 209 208 208 209 209 211 213 213 215 216 218 221 223 226 229 232 235 238 242 245
262 236 222 217 214 210 207 207 207 207 207 208 209 208 207 207 207 208 208 207 208 209 210 211 213 214 216 217 220 222 224 227 230 232 235 239 242 244
254 229 216 208 204 203 202 203 203 203 204 205 206 206 206 206 207 208 209 207 206 207 208 210 212 214 216 218 220 222 224 228 230 232 235 238 241 244
243 215 200 193 195 196 197 197 198 200 202 203 204 205 205 206 205 205 206 208 209 209 209 209 210 212 214 217 220 222 224 228 230 233 235 238 240 243
216 197 193 190 191 192 193 193 194 197 199 202 202 203 204 205 204 204 204 205 207 211 211 211 211 211 213 215 218 221 224 227 230 233 235 238 240 243
193 189 191 191 190 190 191 193 193 195 197 199 200 201 202 202 202 204 204 205 207 209 209 210 211 213 213 214 216 219 222 225 229 232 234 237 240 243
190 187 185 185 186 188 189 190 193 195 196 197 197 198 200 200 202 203 203 204 205 207 208 210 211 212 212 213 215 219 223 226 229 231 233 236 238 240
165 173 177 181 184 185 187 189 192 192 194 195 195 196 197 197 199 200 202 203 205 206 206 208 210 211 213 214 216 219 222 225 228 230 232 235 237 239
153 161 170 176 180 183 187 191 191 191 193 195 195 194 195 196 198 199 201 203 204 203 205 205 207 209 210 212 215 218 220 223 226 229 233 235 238 241
Height
5720 5722 5725 5727 5731 5734 5738 5743 5748 5752 5757 5762 5767 5773 5778 5784 5790 5796 5802 5807 5813 5818 5823 5827 5831 5835 5839 5842 5844 5847 5849 5852 5854 5855 5857 5859 5861 5862
5707 5710 5713 5716 5719 5723 5727 5732 5737 5742 5748 5753 5758 5763 5769 5775 5782 5788 5794 5800 5806 5812 5817 5822 5826 5830 5834 5837 5840 5843 5845 5847 5849 5851 5852 5854 5855 5857
5693 5696 5699 5703 5707 5711 5716 5721 5726 5731 5738 5743 5749 5754 5760 5767 5773 5780 5787 5793 5800 5806 5811 5817 5821 5826 5829 5833 5836 5838 5840 5842 5844 5846 5847 5849 5850 5852
5677 5681 5685 5688 5694 5699 5704 5709 5714 5720 5726 5733 5739 5744 5751 5757 5765 5772 5779 5786 5793 5799 5805 5811 5816 5820 5824 5828 5831 5834 5836 5838 5840 5841 5843 5844 5845 5846
5661 5664 5668 5673 5678 5684 5690 5696 5702 5708 5715 5722 5728 5734 5741 5747 5755 5763 5770 5778 5785 5792 5798 5804 5810 5815 5819 5823 5826 5829 5832 5834 5835 5837 5838 5839 5840 5841
5644 5647 5651 5656 5661 5668 5675 5682 5689 5696 5703 5711 5717 5724 5730 5737 5745 5753 5762 5770 5778 5785 5791 5798 5803 5809 5814 5818 5821 5824 5827 5829 5831 5832 5833 5834 5835 5836
5626 5629 5632 5637 5643 5650 5658 5666 5674 5682 5690 5698 5706 5712 5719 5727 5736 5744 5753 5761 5769 5777 5784 5791 5797 5803 5808 5812 5816 5819 5822 5824 5826 5827 5828 5830 5831 5832
5607 5609 5613 5619 5625 5632 5640 5648 5658 5667 5676 5685 5693 5702 5710 5718 5726 5734 5743 5752 5761 5769 5776 5784 5790 5796 5802 5806 5810 5814 5817 5820 5822 5823 5824 5825 5826 5827
5589 5591 5594 5600 5606 5613 5622 5631 5641 5651 5662 5672 5681 5691 5699 5707 5716 5724 5733 5742 5751 5760 5768 5775 5782 5789 5795 5801 5805 5809 5812 5815 5817 5818 5820 5821 5822 5823
5572 5573 5577 5582 5588 5596 5604 5614 5624 5635 5647 5659 5670 5679 5687 5696 5704 5714 5722 5731 5741 5749 5758 5767 5775 5782 5788 5794 5799 5803 5806 5809 5812 5814 5815 5817 5817 5818
5557 5558 5561 5566 5572 5579 5588 5599 5609 5620 5630 5643 5654 5665 5675 5684 5693 5702 5711 5722 5731 5741 5750 5759 5767 5774 5781 5787 5792 5797 5801 5804 5807 5809 5811 5812 5813 5814
5544 5544 5546 5551 5556 5563 5573 5583 5594 5605 5616 5628 5640 5652 5663 5673 5683 5692 5703 5713 5723 5733 5742 5751 5759 5766 5773 5779 5785 5790 5795 5798 5801 5804 5806 5807 5808 5809
5532 5531 5533 5537 5542 5550 5559 5570 5580 5591 5602 5614 5626 5639 5650 5662 5673 5683 5694 5704 5715 5725 5734 5742 5750 5758 5765 5772 5777 5783 5788 5792 5796 5798 5800 5802 5803 5804
5521 5520 5522 5525 5531 5538 5548 5558 5568 5578 5590 5602 5615 5627 5640 5652 5663 5674 5684 5695 5704 5714 5722 5731 5739 5748 5756 5763 5769 5775 5781 5785 5789 5792 5795 5796 5798 5799
5513 5513 5514 5518 5523 5530 5538 5547 5557 5568 5579 5591 5605 5617 5629 5641 5652 5663 5674 5684 5694 5703 5712 5721 5730 5738 5747 5754 5761 5767 5773 5778 5782 5786 5789 5790 5792 5793
5510 5510 5511 5513 5518 5524 5531 5540 5549 5560 5571 5582 5594 5606 5618 5631 5642 5654 5665 5675 5684 5694 5703 5712 5721 5730 5738 5746 5753 5760 5766 5771 5775 5779 5782 5784 5786 5787
5508 5508 5509 5511 5514 5519 5526 5534 5543 5553 5563 5574 5586 5598 5610 5622 5634 5645 5656 5666 5676 5685 5695 5704 5713 5721 5729 5737 5745 5752 5758 5764 5768 5772 5775 5777 5779 5781
5507 5507 5508 5510 5513 5517 5523 5531 5539 5548 5557 5568 5579 5590 5602 5614 5626 5637 5647 5658 5668 5677 5686 5696 5705 5713 5722 5730 5738 5744 5750 5756 5760 5765 5768 5770 5772 5774
5507 5507 5509 5511 5514 5518 5523 5529 5537 5545 5553 5563 5573 5584 5595 5607 5618 5629 5640 5650 5660 5669 5678 5688 5697 5706 5714 5723 5730 5736 5742 5747 5752 5756 5760 5763 5765 5768
5507 5508 5510 5512 5515 5519 5524 5529 5536 5543 5551 5559 5569 5579 5589 5600 5611 5622 5633 5643 5653 5662 5671 5680 5689 5698 5706 5714 5720 5726 5732 5738 5743 5748 5752 5755 5758 5761
5509 5510 5511 5514 5517 5520 5525 5530 5535 5542 5548 5556 5565 5575 5584 5595 5605 5615 5626 5636 5645 5654 5664 5673 5682 5689 5696 5704 5711 5718 5724 5730 5735 5739 5744 5747 5750 5753
5510 5511 5513 5516 5518 5522 5526 5531 5535 5541 5547 5554 5562 5571 5580 5589 5599 5609 5619 5629 5638 5648 5656 5665 5673 5681 5689 5697 5704 5710 5716 5721 5727 5731 5736 5740 5742 5744
5513 5514 5515 5518 5520 5523 5527 5531 5535 5540 5546 5553 5560 5567 5575 5584 5593 5603 5612 5622 5631 5640 5649 5657 5665 5673 5682 5689 5695 5701 5707 5713 5718 5723 5728 5731 5734 5736